CAS500-2

Last updated on Mon Sep 07 2026 00:02:46 GMT+0000 (Coordinated Universal Time)

1 69013U 26100AK 26249.62715505 .00001864 00000+0 89135-4 0 9990 2 69013 97.3758 145.8263 0011253 90.3059 269.9466 15.20171094 19188
UTC large
Height (km)
Speed (km/s)
/
Latitude / Longitude
Inclination (degrees)
Orbital Period (minutes)
Azimuth
Elevation
Range (km)
Doppler Factor

Next 0 passes for location: London (51.5072 / 0.1276)

No passes found over London.
CAS500-2